www.pogodaiklimat.ru

Погода и климат >> Архив погоды >> Мозамбик >> Quelimane


ПОГОДА в Quelimane

  • Прогноз погоды в Quelimane
  • Монитор погоды в Quelimane
  • Климат города

АРХИВ ПОГОДЫ в Quelimane

Время (UTC), дата Ветер
(напр.,м/с)
 
Видим.   Явления Облачность Т
(С)
Тd
(С)
f
(%)
Тe
(С)
Тes
(С)
Комфортность P
(гПа)
Po
(гПа)
Тmin
(С)
Tmax
(С)
R
(мм)
S
(см)
00 19.03 ЮЗ 1 30 км 5/5 600 м
[Cu med, cong Ac trans]
+26.6 +25.2 92 +38 +38 очень
душно
1015.3 1015.0
03 19.03 Ю 2 30 км {дождь} 6/6 600 м
[Cu med, cong Ac trans]
+26.6 +25.5 94 +39 +39 очень
душно
1014.5 1015.0
06 19.03 Ю 2 30 км {дождь} 9/5 600 м
[Cu med, cong Ac trans Cs]
+28.0 +25.2 85 +41 +43 опасность
перегрева
1016.8 1017.0 +23.5 2
09 19.03 Ю 2 30 км 8/8 300 м
[Cu med, cong Ac trans]
+29.4 +24.9 77 +42 +46 опасность
перегрева
1025.4 1025.0
12 19.03 Ю 2 30 км 9/8 600 м
[Cu med, cong Ac trans]
+29.6 +24.8 75 +42 +44 опасность
перегрева
1015.4 1015.0
15 19.03 Ю 2 30 км гроза без осадков 10/8 300 м
[Cb cap Ac trans]
+28.2 +24.8 82 +40 +40 очень
душно
1015.9 1016.0
18 19.03 ЮЗ 1 30 км в посл. час морось {гроза} 9/8 300 м
[Cb cap Ac trans]
+27.0 +25.3 90 +39 +39 очень
душно
1016.0 1016.0 +30.5 2
21 19.03 Ю 2 20 км слабая морось 9/6 300 м
[Cu med, cong Ac trans]
+27.4 +24.8 86 +39 +39 очень
душно
1016.9 1017.0
00 20.03 ЮВ 1 30 км в посл. час дождь {морось} 9/6 600 м
[Cu med, cong Ac trans]
+26.4 +25.0 92 +38 +38 очень
душно
1015.2 1015.0 2
03 20.03 В 1 20 км слабая морось {дождь} 9/8 300 м
[Cu med, cong Ac trans]
+25.4 +24.2 93 +35 +35 очень
душно
1015.4 1015.0
06 20.03 ЮВ 1 30 км {дождь, морось} 9/6 600 м
[Cu med, cong Ac trans Ci sp]
+27.6 +25.3 87 +40 +42 очень
душно
1016.3 1016.0 +25.2 10
09 20.03 В 2 30 км 9/6 600 м
[Cu med, cong Ac trans Ci sp]
+29.8 +22.8 66 +39 +45 очень
душно
1015.5 1016.0
12 20.03 ЮВ 2 30 км 8/6 600 м
[Cb cap Ac trans Ci ing]
+29.4 +25.2 78 +43 +47 опасность
перегрева
1013.3 1013.0
15 20.03 ЮВ 1 30 км 8/5 600 м
[Cu med, cong Ac trans Ci sp]
+28.2 +24.2 79 +39 +40 очень
душно
1013.8 1014.0
18 20.03 штиль 0 30 км 6/5 600 м
[Cu med, cong Ac trans Ci sp]
+27.4 +24.2 83 +38 +38 очень
душно
1015.5 1016.0 +34.0
21 20.03 штиль 0 30 км зарница 4/4 600 м
[Cb cap Ac trans]
+27.0 +25.0 89 +39 +39 очень
душно
1015.9 1016.0
00 21.03 штиль 0 30 км туман 5/5 600 м
[Cu med, cong]
+26.0 +25.1 95 +37 +37 очень
душно
1015.3 1015.0
03 21.03 штиль 0 600 м туман ?/? +25.6 +24.7 95 +36 +36 очень
душно
1014.6 1015.0
06 21.03 штиль 0 30 км {туман} 4/4 600 м
[Cu med, cong Ac trans]
+27.0 +25.0 89 +39 +45 очень
душно
1016.7 1017.0 +25.2
09 21.03 ЮВ 2 30 км 5/5 600 м
[Cu med, cong]
+31.8 +24.9 67 +45 +55 опасность
перегрева
1015.1 1015.0
12 21.03 Ю 2 30 км 4/4 600 м
[Cu med, cong Ac trans]
+31.6 +24.5 66 +44 +52 опасность
перегрева
1012.1 1012.0
15 21.03 ЮВ 2 30 км 8/4 600 м
[Cu med, cong Ac trans Ci sp]
+29.6 +24.8 75 +42 +42 опасность
перегрева
1012.6 1013.0
18 21.03 штиль 0 30 км 4/3 600 м
[Cu med, cong Ac trans]
+28.0 +24.9 83 +40 +40 очень
душно
1014.5 1015.0 +32.0
21 21.03 штиль 0 30 км 4/3 600 м
[Cu med, cong Ac trans]
+27.6 +25.3 87 +40 +40 очень
душно
1014.6 1015.0
00 22.03 штиль 0 30 км 4/4 600 м
[Cu med, cong]
+27.0 +25.3 90 +39 +39 очень
душно
1013.4 1013.0
03 22.03 штиль 0 30 км 3/3 600 м
[Cu med, cong]
+26.0 +24.6 92 +37 +37 очень
душно
1013.5 1014.0
06 22.03 штиль 0 30 км 3/3 600 м
[Frnb]
+27.8 +25.8 89 +41 +48 опасность
перегрева
1015.0 1015.0 +24.2
12 22.03 ЮВ 2 30 км 8/6 600 м
[Cu med, cong Ac trans Ci fib]
+29.6 +24.5 74 +42 +45 опасность
перегрева
1012.1 1012.0
15 22.03 ЮВ 2 30 км 8/3 600 м
[Cb cap Ac trans Ci ing]
+29.6 +24.5 74 +42 +42 опасность
перегрева
1012.4 1012.0
18 22.03 ЮВ 1 30 км 8/5 600 м
[Cu med, cong Ac trans Ci sp]
+28.0 +25.2 85 +41 +41 опасность
перегрева
1014.1 1014.0 +35.5
21 22.03 штиль 0 30 км 4/4 600 м
[Cu med, cong Ac trans]
+27.2 +25.2 89 +39 +39 очень
душно
1014.5 1015.0
00 23.03 штиль 0 30 км 4/4 600 м
[Cu med, cong]
+26.8 +24.8 89 +42 +42 опасность
перегрева
1013.0 1013.0
03 23.03 штиль 0 30 км 3/3 600 м
[Cu med, cong]
+25.6 +24.7 95 +36 +36 очень
душно
1012.6 1013.0
06 23.03 штиль 0 30 км 5/4 600 м
[Cb cap Ac trans Ci ing]
+27.0 +25.3 90 +39 +44 очень
душно
1014.8 1015.0 +24.0
09 23.03 С 1 30 км 9/8 600 м
[Cu med, cong Ac trans]
+30.4 +24.7 72 +43 +46 опасность
перегрева
1014.3 1014.0
12 23.03 Ю 2 30 км {ливн. осадки, морось} 9/8 600 м
[Cu med, cong Ac trans]
+27.8 +23.8 79 +38 +40 очень
душно
1012.1 1012.0 11
15 23.03 ЮВ 2 30 км 8/4 600 м
[Cu med, cong Ac trans Ci sp]
+28.6 +24.6 79 +41 +41 опасность
перегрева
1011.4 1011.0
18 23.03 штиль 0 30 км 6/3 600 м
[Cb cap Ac trans Ci ing]
+27.6 +25.0 86 +40 +40 очень
душно
1013.6 1014.0 +31.0 11
21 23.03 штиль 0 30 км ясно +26.5 +25.3 93 +38 +38 очень
душно
1013.7 1014.0
00 24.03 штиль 0 30 км 3/3 600 м
[Cu med, cong]
+25.6 +24.4 93 +36 +36 очень
душно
1012.5 1013.0
03 24.03 штиль 0 30 км 6/3 600 м
[Cu med, cong Ac trans Ci fib]
+25.3 +24.3 94 +35 +35 очень
душно
1012.5 1013.0
06 24.03 штиль 0 30 км 8/5 300 м
[Cu med, cong Ac trans Ci fib]
+26.8 +25.2 91 +39 +42 очень
душно
1014.2 1014.0 +25.2 11
09 24.03 СВ 1 30 км 6/6 600 м
[Cu med, cong Ac trans]
+30.4 +24.4 70 +42 +51 опасность
перегрева
1012.9 1013.0
12 24.03 ЮВ 1 30 км 8/8 600 м
[Cu med, cong]
+32.6 +24.4 62 +45 +48 опасность
перегрева
1010.2 1010.0
06 25.03 СВ 1 30 км 8/6 600 м
[Cu med, cong Ac trans]
+26.4 +23.8 86 +36 +38 очень
душно
1013.3 1013.0 +25.0
15 25.03 штиль 0 30 км {гроза} 8/6 300 м
[Cb cap Ac trans Ci ing]
+26.6 +24.3 87 +37 +37 очень
душно
1010.8 1011.0
18 25.03 штиль 0 30 км зарница {гроза} 8/6 200 м
[Cb cap Ac trans Ci ing]
+27.2 +25.3 89 +39 +39 очень
душно
1013.2 1013.0 +32.5 14

 

Местоположение метеостанции Quelimane (Мозамбик): широта -17.88 долгота 36.88 высота над уровнем моря 16 м.

В архиве по умолчанию представлена погода в Quelimane за последнюю неделю. Архивные данные за месяц целиком и за предыдущие месяцы, начиная с января 2011 года, Вы можете получить, выбрав интересующий диапазон дат из раскрывающегося списка и нажав кнопку "Ввод!".

Внимание! Время в таблицах - всемирное. Для получения местного времени необходимо прибавить поправку, которая в Quelimane равна 2 ч.

Смотрите также архив погоды в соседних городах и на ближайших метеорологических станциях:

Погода в Pebane (Мозамбик) (151 км)
Погода в Caia (Мозамбик) (164 км)
Погода в Beira (Мозамбик) (298 км)
Погода в Chichiri (Малави) (306 км)
Погода в Chileka (Малави) (318 км)
Погода в Cuamba (Мозамбик) (341 км)
Погода в Angoche (Мозамбик) (370 км)
Погода в Chimoio (Мозамбик) (385 км)
Погода в Catandica (Мозамбик) (393 км)
Погода в Tete Chingodze (Мозамбик) (396 км)

Пояснения к столбцам:

Ветер - указаны скорость ветра в м/с - средняя за 10 мин, порывы в срок и между сроками (в фигурных скобках) и направление, откуда дует ветер: С - северный, СВ - северо-восточный, В - восточный, ЮВ - юго-восточный, Ю - южный, ЮЗ - юго-западный, З - западный, СЗ - северо-западный.
Видимость - горизонтальная дальность видимости в метрах или километрах. При видимости от 1 до 10 км при отсутствии осадков обычно наблюдается дымка, при ухудшении видимости до 1 км и менее - туман. В сухую погоду видимость может ухудшаться дымом, пылью или мглою.
Явления - указаны атмосферные явления, наблюдавшиеся в срок или в последний час перед сроком; фигурными скобками обозначены явления, наблюдавшиеся между сроками (за 1-3 часа до срока); квадратными скобками обозначены град или гололедные отложения с указанием их диаметра в мм.
Облачность - указаны через наклонную черту общая и нижняя облачность в баллах и высота нижней границы облаков в метрах; квадратными скобками обозначены формы облаков: Ci - перистые, Cs - перисто-слоистые, Cc - перисто-кучевые, Ac - высококучевые, As - высокослоистые, Sc - слоисто-кучевые, Ns - слоисто-дождевые, Cu - кучевые, Cb - кучево-дождевые. Подробнее классификацию облаков см. в Атласе облаков (PDF).
T - Температура воздуха - температура, измеренная на высоте 2 м над землей.
Td - Температура точки росы - температура, при понижении до которой содержащийся в воздухе водяной пар достигнет насыщения.
f - Относительная влажность воздуха - влажноcть воздуха, измеренная на высоте 2 м над землей.
Te - Эффективная температура - температура, которую ощущает одетый по сезону человек в тени. Характеристика душности погоды. При расчете учитывается влияние влажности воздуха и скорости ветра на теплоощущения человека.
Tes - Эффективная температура на солнце - температура, которую ощущает человек, с поправкой на солнечный нагрев. Характеристика знойности погоды. Зависит от высоты солнца над горизонтом, облачности и скорости ветра. Ночью, в пасмурную погоду, а также при ветре 12 м/с и более поправка равна нулю.
P - Атмосферное давление - приведенное к уровню моря атмосферное давление.
Po - Атмосферное давление - измеренное на уровне метеостанции атмосферное давление.
Tmin - Минимальная температура - минимум температуры воздуха на высоте 2 м над землей.
Tmax - Максимальная температура - максимум температуры воздуха на высоте 2 м над землей.
R - Количество осадков - Количество выпавших осадков, мм. При наведении курсора мыши на число - период времени, за который выпало указанное количество осадков.
S - Снежный покров - Высота снежного покрова, см. При наведении курсора мыши на число - состояние снежного покрова и степень покрытия местности в баллах.